AZU9050 SBKP-SBFL

Flight info

Callsign AZU9050
Flight time 0h 51m
Altitude 34000
Route SOVSI DCT PUBIS
Aircraft A20N/M-SDE2E3FGHIJ1RWXY/LB1

Departure

Time 2026-04-21 02:22
Airport Viracopos International Airport (SBKP)

Arrival

Time 2026-04-21 03:14
Airport Hercílio Luz International Airport (SBFL)
Time Latitude Longitude Altitude Speed Heading
2026-04-21 01:49 -23.00425 -47.15041 2149 ft 0 kts 37°
2026-04-21 02:11 -23.00432 -47.15047 2149 ft 2 kts 37°
2026-04-21 02:11 -23.00445 -47.15058 2147 ft 2 kts 35°
2026-04-21 02:11 -23.00459 -47.15067 2147 ft 2 kts 14°
2026-04-21 02:11 -23.00471 -47.15065 2145 ft 1 kts 308°
2026-04-21 02:12 -23.00472 -47.15064 2146 ft 0 kts 308°
2026-04-21 02:16 -23.00469 -47.15067 2145 ft 2 kts 308°
2026-04-21 02:16 -23.00454 -47.15089 2148 ft 6 kts 307°
2026-04-21 02:16 -23.00424 -47.15130 2148 ft 6 kts 309°
2026-04-21 02:16 -23.00387 -47.15164 2148 ft 7 kts 343°
2026-04-21 02:17 -23.00348 -47.15144 2148 ft 7 kts 36°
2026-04-21 02:17 -23.00301 -47.15106 2148 ft 10 kts 37°
2026-04-21 02:17 -23.00243 -47.15056 2148 ft 12 kts 39°
2026-04-21 02:17 -23.00175 -47.14998 2148 ft 13 kts 38°
2026-04-21 02:18 -23.00099 -47.14936 2146 ft 15 kts 37°
2026-04-21 02:18 -23.00022 -47.14864 2148 ft 13 kts 57°
2026-04-21 02:18 -22.99951 -47.14784 2147 ft 17 kts 38°
2026-04-21 02:18 -22.99922 -47.14757 2147 ft 0 kts 46°
2026-04-21 02:20 -22.99901 -47.14718 2148 ft 11 kts 72°
2026-04-21 02:21 -22.99896 -47.14632 2148 ft 13 kts 93°
2026-04-21 02:21 -22.99905 -47.14609 2146 ft 0 kts 127°
2026-04-21 02:21 -22.99906 -47.14608 2146 ft 0 kts 127°
2026-04-21 02:22 -23.00011 -47.14463 2149 ft 63 kts 127°
2026-04-21 02:22 -23.00429 -47.13881 2155 ft 129 kts 128°
2026-04-21 02:22 -23.01033 -47.13024 2623 ft 140 kts 127°
2026-04-21 02:22 -23.01602 -47.12197 3446 ft 133 kts 126°
2026-04-21 02:23 -23.02181 -47.11356 3982 ft 145 kts 126°
2026-04-21 02:23 -23.02847 -47.10436 4410 ft 165 kts 129°
2026-04-21 02:23 -23.03619 -47.09425 4774 ft 186 kts 130°
2026-04-21 02:23 -23.04483 -47.08282 5145 ft 204 kts 129°
2026-04-21 02:24 -23.05613 -47.07265 5597 ft 220 kts 155°
2026-04-21 02:24 -23.07162 -47.06994 5971 ft 243 kts 187°
2026-04-21 02:24 -23.08768 -47.07702 6556 ft 258 kts 215°
2026-04-21 02:24 -23.09952 -47.09243 6984 ft 281 kts 243°
2026-04-21 02:25 -23.10576 -47.11274 7781 ft 286 kts 253°
2026-04-21 02:25 -23.11231 -47.13310 8569 ft 288 kts 240°
2026-04-21 02:25 -23.12401 -47.15080 9380 ft 289 kts 223°
2026-04-21 02:25 -23.13874 -47.16588 10177 ft 292 kts 220°
2026-04-21 02:26 -23.15427 -47.18095 10614 ft 310 kts 219°
2026-04-21 02:26 -23.17094 -47.19673 10846 ft 332 kts 219°
2026-04-21 02:26 -23.18281 -47.20785 11061 ft 342 kts 217°
2026-04-21 02:26 -23.20990 -47.22630 11999 ft 345 kts 202°
2026-04-21 02:27 -23.23232 -47.23481 12725 ft 346 kts 192°
2026-04-21 02:27 -23.25584 -47.24102 13451 ft 350 kts 192°
2026-04-21 02:27 -23.27963 -47.24740 14128 ft 354 kts 192°
2026-04-21 02:27 -23.30366 -47.25388 14740 ft 358 kts 193°
2026-04-21 02:28 -23.32800 -47.26046 15339 ft 362 kts 193°
2026-04-21 02:28 -23.34425 -47.26486 15752 ft 364 kts 193°
2026-04-21 02:28 -23.36905 -47.27158 16353 ft 368 kts 193°
2026-04-21 02:28 -23.39377 -47.27827 16882 ft 372 kts 193°
2026-04-21 02:29 -23.41902 -47.28511 17077 ft 374 kts 193°
2026-04-21 02:29 -23.44428 -47.29196 17121 ft 374 kts 193°
2026-04-21 02:29 -23.46959 -47.29883 17125 ft 373 kts 193°
2026-04-21 02:29 -23.49485 -47.30569 17134 ft 373 kts 193°
2026-04-21 02:30 -23.52004 -47.31252 17133 ft 373 kts 193°
2026-04-21 02:30 -23.54501 -47.31931 17140 ft 373 kts 193°
2026-04-21 02:30 -23.57042 -47.32621 17349 ft 377 kts 193°
2026-04-21 02:30 -23.59596 -47.33314 18026 ft 378 kts 193°
2026-04-21 02:31 -23.62170 -47.34013 18569 ft 383 kts 194°
2026-04-21 02:31 -23.64739 -47.34709 19068 ft 386 kts 194°
2026-04-21 02:31 -23.67355 -47.35419 19606 ft 388 kts 194°
2026-04-21 02:31 -23.69997 -47.36136 20108 ft 391 kts 194°
2026-04-21 02:32 -23.72624 -47.36850 20619 ft 395 kts 195°
2026-04-21 02:32 -23.75302 -47.37579 21106 ft 398 kts 195°
2026-04-21 02:32 -23.78015 -47.38318 21614 ft 402 kts 195°
2026-04-21 02:32 -23.80742 -47.39061 22123 ft 405 kts 195°
2026-04-21 02:33 -23.83489 -47.39810 22630 ft 408 kts 195°
2026-04-21 02:33 -23.86222 -47.40555 23130 ft 411 kts 195°
2026-04-21 02:33 -23.89009 -47.41316 23628 ft 414 kts 195°
2026-04-21 02:33 -23.91830 -47.42087 24065 ft 417 kts 195°
2026-04-21 02:34 -23.94650 -47.42857 24505 ft 419 kts 195°
2026-04-21 02:34 -23.97457 -47.43624 24909 ft 421 kts 195°
2026-04-21 02:34 -24.00316 -47.44406 25316 ft 424 kts 195°
2026-04-21 02:34 -24.03197 -47.45195 25711 ft 427 kts 195°
2026-04-21 02:35 -24.06088 -47.45986 26102 ft 429 kts 195°
2026-04-21 02:35 -24.08998 -47.46782 26492 ft 431 kts 195°
2026-04-21 02:35 -24.11887 -47.47576 26879 ft 433 kts 195°
2026-04-21 02:35 -24.14827 -47.48411 27248 ft 436 kts 196°
2026-04-21 02:36 -24.17775 -47.49262 27602 ft 438 kts 196°
2026-04-21 02:36 -24.20700 -47.50108 27948 ft 440 kts 196°
2026-04-21 02:36 -24.23676 -47.50966 28295 ft 442 kts 196°
2026-04-21 02:36 -24.26667 -47.51826 28637 ft 444 kts 196°
2026-04-21 02:37 -24.29678 -47.52692 28959 ft 447 kts 196°
2026-04-21 02:37 -24.32654 -47.53547 29270 ft 449 kts 196°
2026-04-21 02:37 -24.35691 -47.54419 29581 ft 451 kts 195°
2026-04-21 02:37 -24.38710 -47.55287 29890 ft 453 kts 196°
2026-04-21 02:38 -24.41789 -47.56173 30211 ft 455 kts 195°
2026-04-21 02:38 -24.44858 -47.57056 30495 ft 456 kts 196°
2026-04-21 02:38 -24.47913 -47.57935 30804 ft 457 kts 196°
2026-04-21 02:38 -24.50992 -47.58821 31125 ft 458 kts 196°
2026-04-21 02:39 -24.54070 -47.59708 31488 ft 457 kts 196°
2026-04-21 02:39 -24.57145 -47.60594 31923 ft 455 kts 196°
2026-04-21 02:39 -24.60164 -47.61465 32367 ft 452 kts 196°
2026-04-21 02:39 -24.63204 -47.62341 32808 ft 450 kts 196°
2026-04-21 02:40 -24.66225 -47.63213 33222 ft 448 kts 196°
2026-04-21 02:40 -24.69231 -47.64081 33628 ft 446 kts 196°
2026-04-21 02:40 -24.72225 -47.64947 33986 ft 444 kts 196°
2026-04-21 02:40 -24.75214 -47.65811 34090 ft 441 kts 196°
2026-04-21 02:41 -24.78144 -47.66658 34101 ft 438 kts 196°
2026-04-21 02:41 -24.84093 -47.68382 34097 ft 441 kts 196°
2026-04-21 02:42 -24.90039 -47.70105 34098 ft 441 kts 196°
2026-04-21 02:42 -24.95937 -47.71815 34099 ft 441 kts 197°
2026-04-21 02:43 -25.01877 -47.73540 34098 ft 441 kts 197°
2026-04-21 02:43 -25.07807 -47.75263 34092 ft 440 kts 197°
2026-04-21 02:44 -25.13714 -47.76981 34088 ft 440 kts 197°
2026-04-21 02:44 -25.19633 -47.78704 34089 ft 440 kts 197°
2026-04-21 02:45 -25.25573 -47.80435 34102 ft 444 kts 197°
2026-04-21 02:45 -25.31608 -47.82198 34101 ft 458 kts 197°
2026-04-21 02:46 -25.37709 -47.83977 34096 ft 441 kts 197°
2026-04-21 02:46 -25.43627 -47.85712 34099 ft 442 kts 197°
2026-04-21 02:47 -25.49590 -47.87459 34099 ft 442 kts 197°
2026-04-21 02:47 -25.55512 -47.89194 34098 ft 442 kts 197°
2026-04-21 02:48 -25.61473 -47.90942 34095 ft 442 kts 197°
2026-04-21 02:48 -25.67430 -47.92690 34097 ft 442 kts 197°
2026-04-21 02:49 -25.73391 -47.94441 34098 ft 442 kts 197°
2026-04-21 02:49 -25.79323 -47.96186 34097 ft 442 kts 197°
2026-04-21 02:50 -25.85279 -47.97940 34094 ft 442 kts 198°
2026-04-21 02:50 -25.91196 -47.99683 33953 ft 441 kts 198°
2026-04-21 02:50 -25.94170 -48.00561 33326 ft 443 kts 198°
2026-04-21 02:51 -25.97182 -48.01452 32299 ft 452 kts 197°
2026-04-21 02:51 -26.00226 -48.02353 31042 ft 464 kts 197°
2026-04-21 02:51 -26.03384 -48.03308 29808 ft 475 kts 199°
2026-04-21 02:51 -26.06514 -48.04480 28888 ft 474 kts 201°
2026-04-21 02:52 -26.09619 -48.05643 28272 ft 467 kts 200°
2026-04-21 02:52 -26.12667 -48.06776 27928 ft 455 kts 201°
2026-04-21 02:52 -26.15646 -48.07885 27578 ft 444 kts 201°
2026-04-21 02:52 -26.18562 -48.08976 26983 ft 440 kts 201°
2026-04-21 02:53 -26.21452 -48.10060 26402 ft 435 kts 201°
2026-04-21 02:53 -26.24283 -48.11124 25816 ft 432 kts 201°
2026-04-21 02:53 -26.27120 -48.12191 25211 ft 430 kts 201°
2026-04-21 02:53 -26.29942 -48.13252 24638 ft 426 kts 201°
2026-04-21 02:54 -26.32737 -48.14304 24067 ft 424 kts 201°
2026-04-21 02:54 -26.35525 -48.15354 23450 ft 421 kts 201°
2026-04-21 02:54 -26.38286 -48.16394 22888 ft 416 kts 201°
2026-04-21 02:54 -26.41016 -48.17423 22334 ft 411 kts 201°
2026-04-21 02:55 -26.43694 -48.18433 21770 ft 407 kts 201°
2026-04-21 02:55 -26.46371 -48.19443 21210 ft 403 kts 201°
2026-04-21 02:55 -26.49018 -48.20443 20649 ft 399 kts 201°
2026-04-21 02:55 -26.51606 -48.21420 20090 ft 396 kts 200°
2026-04-21 02:56 -26.54227 -48.22412 19540 ft 393 kts 200°
2026-04-21 02:56 -26.59379 -48.24361 18429 ft 389 kts 200°
2026-04-21 02:56 -26.61952 -48.25336 17841 ft 386 kts 200°
2026-04-21 02:57 -26.64464 -48.26288 17300 ft 382 kts 200°
2026-04-21 02:57 -26.66981 -48.27244 16758 ft 378 kts 200°
2026-04-21 02:57 -26.69432 -48.28175 16225 ft 375 kts 200°
2026-04-21 02:57 -26.71905 -48.29114 15683 ft 373 kts 199°
2026-04-21 02:58 -26.74358 -48.30044 15153 ft 370 kts 199°
2026-04-21 02:58 -26.76800 -48.30970 14582 ft 369 kts 199°
2026-04-21 02:58 -26.79190 -48.31877 14094 ft 366 kts 199°
2026-04-21 02:58 -26.81606 -48.32794 13542 ft 364 kts 199°
2026-04-21 02:59 -26.83998 -48.33704 13022 ft 361 kts 199°
2026-04-21 02:59 -26.86366 -48.34604 12506 ft 357 kts 199°
2026-04-21 02:59 -26.88714 -48.35497 11991 ft 355 kts 199°
2026-04-21 02:59 -26.91040 -48.36383 11485 ft 352 kts 198°
2026-04-21 03:00 -26.93300 -48.37408 10991 ft 350 kts 206°
2026-04-21 03:00 -26.95390 -48.38734 10802 ft 338 kts 210°
2026-04-21 03:00 -26.97388 -48.40020 10671 ft 324 kts 209°
2026-04-21 03:00 -26.99308 -48.41245 10559 ft 311 kts 209°
2026-04-21 03:01 -27.01138 -48.42411 10348 ft 303 kts 209°
2026-04-21 03:01 -27.02957 -48.43571 10058 ft 298 kts 209°
2026-04-21 03:01 -27.04739 -48.44711 9863 ft 294 kts 209°
2026-04-21 03:01 -27.06530 -48.45857 9673 ft 296 kts 209°
2026-04-21 03:02 -27.08320 -48.47003 9488 ft 295 kts 209°
2026-04-21 03:02 -27.10072 -48.48127 9303 ft 293 kts 209°
2026-04-21 03:02 -27.11845 -48.49264 9122 ft 293 kts 209°
2026-04-21 03:02 -27.13626 -48.50407 8912 ft 293 kts 209°
2026-04-21 03:03 -27.15392 -48.51541 8654 ft 290 kts 209°
2026-04-21 03:03 -27.17125 -48.52654 8472 ft 290 kts 209°
2026-04-21 03:03 -27.18879 -48.53781 8292 ft 290 kts 209°
2026-04-21 03:03 -27.20635 -48.54909 8107 ft 289 kts 208°
2026-04-21 03:04 -27.22467 -48.55843 7906 ft 288 kts 198°
2026-04-21 03:04 -27.24362 -48.56502 7666 ft 287 kts 196°
2026-04-21 03:04 -27.26264 -48.57164 7432 ft 286 kts 197°
2026-04-21 03:04 -27.28162 -48.57833 7191 ft 285 kts 197°
2026-04-21 03:05 -27.30056 -48.58504 6956 ft 284 kts 197°
2026-04-21 03:05 -27.31943 -48.59173 6718 ft 283 kts 197°
2026-04-21 03:05 -27.33822 -48.59839 6477 ft 283 kts 197°
2026-04-21 03:05 -27.35674 -48.60495 6242 ft 282 kts 197°
2026-04-21 03:06 -27.37546 -48.61159 6005 ft 281 kts 197°
2026-04-21 03:06 -27.39412 -48.61820 5773 ft 280 kts 197°
2026-04-21 03:06 -27.41267 -48.62477 5538 ft 279 kts 197°
2026-04-21 03:06 -27.43122 -48.63135 5310 ft 278 kts 197°
2026-04-21 03:07 -27.44929 -48.63777 5186 ft 264 kts 197°
2026-04-21 03:07 -27.46632 -48.64382 5024 ft 250 kts 197°
2026-04-21 03:07 -27.48295 -48.64972 5003 ft 245 kts 197°
2026-04-21 03:07 -27.49854 -48.65679 4921 ft 226 kts 208°
2026-04-21 03:08 -27.51114 -48.66545 4760 ft 214 kts 211°
2026-04-21 03:08 -27.52369 -48.67406 4424 ft 211 kts 211°
2026-04-21 03:08 -27.53632 -48.68263 4092 ft 211 kts 211°
2026-04-21 03:08 -27.54879 -48.69106 3902 ft 205 kts 211°
2026-04-21 03:09 -27.56034 -48.69888 3837 ft 189 kts 211°
2026-04-21 03:09 -27.57263 -48.70368 3478 ft 190 kts 178°
2026-04-21 03:09 -27.58455 -48.69859 3083 ft 182 kts 140°
2026-04-21 03:09 -27.59264 -48.68842 2804 ft 169 kts 123°
2026-04-21 03:10 -27.59858 -48.67756 2560 ft 157 kts 117°
2026-04-21 03:10 -27.60421 -48.66679 2344 ft 144 kts 119°
2026-04-21 03:10 -27.60892 -48.65796 2173 ft 142 kts 119°
2026-04-21 03:10 -27.61404 -48.64837 1977 ft 141 kts 119°
2026-04-21 03:11 -27.61907 -48.63894 1792 ft 140 kts 119°
2026-04-21 03:11 -27.62413 -48.62945 1598 ft 141 kts 119°
2026-04-21 03:11 -27.62917 -48.62001 1414 ft 141 kts 120°
2026-04-21 03:11 -27.63420 -48.61057 1235 ft 140 kts 120°
2026-04-21 03:12 -27.63928 -48.60105 1040 ft 141 kts 120°
2026-04-21 03:12 -27.64429 -48.59166 860 ft 140 kts 121°
2026-04-21 03:12 -27.64931 -48.58225 673 ft 139 kts 122°
2026-04-21 03:12 -27.65431 -48.57288 498 ft 139 kts 122°
2026-04-21 03:13 -27.65922 -48.56360 291 ft 139 kts 120°
2026-04-21 03:13 -27.66411 -48.55419 121 ft 141 kts 120°
2026-04-21 03:13 -27.66907 -48.54491 26 ft 127 kts 123°
2026-04-21 03:13 -27.67263 -48.53839 21 ft 77 kts 121°
2026-04-21 03:14 -27.67512 -48.53369 26 ft 58 kts 118°
2026-04-21 03:14 -27.67649 -48.53162 25 ft 15 kts 170°
2026-04-21 03:14 -27.67742 -48.53214 24 ft 16 kts 221°
2026-04-21 03:14 -27.67732 -48.53325 26 ft 18 kts 301°
2026-04-21 03:15 -27.67659 -48.53459 27 ft 19 kts 303°
2026-04-21 03:15 -27.67580 -48.53602 26 ft 23 kts 302°
2026-04-21 03:15 -27.67501 -48.53756 27 ft 23 kts 300°
2026-04-21 03:15 -27.67433 -48.53880 28 ft 17 kts 302°
2026-04-21 03:16 -27.67368 -48.53997 27 ft 18 kts 300°
2026-04-21 03:16 -27.67325 -48.54078 25 ft 19 kts 301°
2026-04-21 03:16 -27.67234 -48.54249 25 ft 19 kts 302°
2026-04-21 03:16 -27.67239 -48.54341 25 ft 12 kts 211°
2026-04-21 03:17 -27.67302 -48.54399 24 ft 10 kts 266°
2026-04-21 03:17 -27.67270 -48.54460 26 ft 10 kts 297°
2026-04-21 03:17 -27.67275 -48.54488 24 ft 2 kts 212°
2026-04-21 03:17 -27.67293 -48.54499 24 ft 4 kts 208°
2026-04-21 03:18 -27.67308 -48.54509 27 ft 0 kts 210°